Flag for Japan Weather past 2 weeks in Nagano, Japan

Now
67 °F

Mild.


Feels Like: 67 °F
Forecast: 54 / 82 °F
Wind: 10 mph from West

Location: Nagano

Current Time: May 26, 2015 at 1:10:28 AM

Latest Report: May 26, 2015 at 12:00 AM


Visibility: N/A

Pressure: 29.79 "Hg

Humidity: 50%

Dew point: 48 °F

Location of NaganoLocation

Historic Weather in Nagano — Graph

°F

Nagano temperature yesterday

Maximum temperature yesterday: 81 °F (at 2:00 PM)
Minimum temperature yesterday: 56 °F (at 5:00 AM)
Average temperature yesterday: 70 °F

Past Weeks' High & Low Weather Summary

 TemperatureHumidityPressure
High87 °F (May 15, 2:00 PM)98% (May 12, 11:00 PM)30.32 "Hg (May 12, 11:00 PM)
Low41 °F (May 11, 5:00 AM)14% (May 17, 4:00 PM)29.41 "Hg (May 20, 1:00 PM)
Average64 °F56%29.80 "Hg
* Reported May 10 11:00 PM — May 25 11:00 PM, Nagano, Weather by CustomWeather, © 2015

Note: Actual official high and low records may vary slightly from our data, if they occured in-between our weather recording intervals... More about our weather records

Advertising

Nagano weather history for previous 24 hours

 ConditionsComfort  
Time TempWeatherWind HumidityBarometerVisibility
11:00 PM
Mon, May 25
68 °FMild.10 mph47%29.80 "HgN/A
10:00 PM68 °FMild.10 mph47%29.80 "HgN/A
9:00 PM70 °FSprinkles. Overcast.10 mph43%29.79 "Hg9 mi
8:00 PM72 °FMild.13 mph41%29.76 "HgN/A
7:00 PM74 °FMild.9 mph39%29.74 "HgN/A
6:00 PM76 °FMild.10 mph35%29.71 "HgN/A
5:00 PM78 °FPleasantly warm.7 mph29%29.69 "HgN/A
4:00 PM81 °FPleasantly warm.6 mph23%29.68 "HgN/A
3:00 PM80 °FOvercast.10 mph24%29.69 "Hg16 mi
2:00 PM81 °FPleasantly warm.2 mph26%29.69 "HgN/A
1:00 PM81 °FPleasantly warm.7 mph27%29.71 "HgN/A
12:00 PM78 °FPleasantly warm.8 mph29%29.73 "HgN/A
11:00 AM79 °FPleasantly warm.8 mph37%29.75 "HgN/A
10:00 AM73 °FMild.9 mph47%29.78 "HgN/A
9:00 AM69 °FOvercast.3 mph54%29.81 "Hg12 mi
8:00 AM65 °FMild.5 mph59%29.84 "HgN/A
7:00 AM62 °FCool.5 mph63%29.85 "HgN/A
5:00 AM56 °FCool.1 mph80%29.86 "HgN/A
4:00 AM56 °FCool.2 mph80%29.84 "HgN/A
3:00 AM57 °FOvercast.3 mph78%29.83 "Hg16 mi
2:00 AM58 °FCool.2 mph74%29.83 "HgN/A
1:00 AM60 °FCool.2 mph70%29.83 "HgN/A
Weather by CustomWeather, © 2015

See weather overviewHow to use our weather pages